Regional Weather Roundup
Issued by NWS

Home | Current Version | Previous Version | Text Only | Print | Product List | Glossary On
Versions: 1 2 3 4 5 6 7 8 9 10 11 12 13 14 15 16 17 18 19 20 21 22 23 24 25 26 27 28 29 30 31 32 33 34 35 36 37 38 39 40 41 42 43 44 45 46 47 48 49 50
000
ASUS43 KLMK 200310
RWRKY
KENTUCKY REGIONAL WEATHER ROUNDUP
NATIONAL WEATHER SERVICE LOUISVILLE KY
1000 PM EST FRI DEC 19 2014

NOTE "FAIR" INDICATES FEW OR NO CLOUDS BELOW 12,000 FEET
WITH NO SIGNIFICANT WEATHER AND/OR OBSTRUCTIONS TO VISIBILITY.

KYZ001>023-026-027-061>063-070>075-200400-
WESTERN AND SOUTH CENTRAL KENTUCKY

CITY           SKY/WX    TMP DP  RH WIND       PRES   REMARKS
PADUCAH        CLOUDY    37  28  70 E5        30.25R WCI  33
HENDERSON      CLOUDY    34  25  69 NE7       30.26F WCI  28
OWENSBORO      CLOUDY    33  24  70 E8        30.26F WCI  26
HOPKINSVILLE   CLOUDY    35  29  78 NE9       30.22F WCI  27
BOWLING GREEN  MOCLDY    34  25  69 NE6       30.24F WCI  29
GLASGOW        MOCLDY    32  25  74 CALM      30.23S
$$

KYZ024-025-028>034-038-045-046-053-200400-
NORTH CENTRAL KENTUCKY

CITY           SKY/WX    TMP DP  RH WIND       PRES   REMARKS
LOUISVILLE/SDF CLOUDY    29  22  75 N3        30.28S
LOUISVILLE/LOU MOCLDY    28  21  75 N3        30.28F
FORT KNOX      MOCLDY    28  22  78 N5        30.25S WCI  22
$$

KYZ035>037-039>044-047>052-055>060-089>105-200400-
NORTHEAST KENTUCKY

CITY           SKY/WX    TMP DP  RH WIND       PRES   REMARKS
LEXINGTON      CLEAR     24  20  84 NE7       30.25F WCI  16
COVINGTON      CLOUDY    30  20  66 E7        30.25F WCI  23
FRANKFORT      PTCLDY    26  20  77 NE5       30.25F WCI  20
$$

KYZ054-064>069-076>088-106>120-200400-
SOUTHEAST KENTUCKY

CITY           SKY/WX    TMP DP  RH WIND       PRES   REMARKS
JACKSON        MOCLDY    28  21  75 VRB5      30.22S WCI  23
LONDON         PTCLDY    30  22  72 N6        30.21F WCI  24
SOMERSET       CLEAR     30  23  74 NE3       30.24F
MIDDLESBORO    PTCLDY    32  28  86 CALM      30.20F
MONTICELLO     PTCLDY    30  25  82 CALM      30.25F
$$




USA.gov is the U.S. government's official web portal to all federal, state and local government web resources and services.